Location: Bonny Doon Airfield
(37.0704°N, 122.1252°W)
Time: 08:08:13
(UTC-08:00)

Vanguard 2 - Pass Details

Date: 13 December 2017
Orbit: 553 x 2939 km, 32.9° (Epoch: 22 January)

Event Time Altitude Azimuth Distance (km) Brightness Sun altitude
Rises 19:20:22 0° 270° (W) 3,084 11.8 -28.7°
Reaches altitude 10° 19:23:07 10° 260° (W) 1,984 10.6 -29.2°
Enters shadow 19:25:57 28° 226° (SW) 1,084 8.7 -29.8°
Maximum altitude 19:26:57 32° 197° (SSW) 974 - -30.0°
Drops below altitude 10° 19:30:30 10° 132° (SE) 1,827 - -30.7°
Sets 19:32:56 0° 122° (ESE) 2,796 - -31.2°
